Location: Stoke Bliss
(52.2667°N, 2.5167°W)
Time: 19:00:30
(UTC+00:00)

ATLAS CENTAUR R/B - Pass Details

Date: 03 March 2021
Orbit: 475 x 670 km, 64.7° (Epoch: 30 March)

Event Time Altitude Azimuth Distance (km) Brightness Sun altitude
Rises 19:57:02 0° 221° (SW) 2,518 5.0 -19.6°
Reaches altitude 10° 19:59:09 10° 221° (SW) 1,642 4.0 -19.9°
Maximum altitude 20:02:47 88° 138° (SE) 485 0.9 -20.4°
Enters shadow 20:03:16 66° 46° (NE) 527 1.0 -20.5°
